owner,sensor,date,latitude,longitude,vertical_datum,mass_concentration_of_oxygen_in_sea_water,qcFlag 
SCCF RECON,ioos:station:SCCF:18:1,2019-10-01T04:00:00Z,26.6955,-81.8138,0.891,5.63,11111222 
SCCF RECON,ioos:station:SCCF:18:1,2019-10-01T05:00:00Z,26.6955,-81.8138,0.87,5.5,11111222 
SCCF RECON,ioos:station:SCCF:18:1,2019-10-01T06:00:00Z,26.6955,-81.8138,0.83,5.65,11111222 
SCCF RECON,ioos:station:SCCF:18:1,2019-10-01T07:00:00Z,26.6955,-81.8138,0.821,5.36,11111222 
SCCF RECON,ioos:station:SCCF:18:1,2019-10-01T08:00:00Z,26.6955,-81.8138,0.853,5.42,11111222 
SCCF RECON,ioos:station:SCCF:18:1,2019-10-01T09:00:00Z,26.6955,-81.8138,0.89,5.58,11111222 
SCCF RECON,ioos:station:SCCF:18:1,2019-10-01T10:00:00Z,26.6955,-81.8138,0.94,5.48,11111222 
SCCF RECON,ioos:station:SCCF:18:1,2019-10-01T11:00:00Z,26.6955,-81.8138,1.001,5.42,11111222 
SCCF RECON,ioos:station:SCCF:18:1,2019-10-01T12:00:00Z,26.6955,-81.8138,17.26,5.43,11111222 
SCCF RECON,ioos:station:SCCF:18:1,2019-10-01T13:00:00Z,26.6955,-81.8138,1.07,5.15,11111222 
SCCF RECON,ioos:station:SCCF:18:1,2019-10-01T14:00:00Z,26.6955,-81.8138,1.05,5.35,11111222 
SCCF RECON,ioos:station:SCCF:18:1,2019-10-01T15:00:00Z,26.6955,-81.8138,1.0,5.41,11111222 
SCCF RECON,ioos:station:SCCF:18:1,2019-10-01T16:00:00Z,26.6955,-81.8138,0.92,5.4,11111222 
SCCF RECON,ioos:station:SCCF:18:1,2019-10-01T18:00:00Z,26.6955,-81.8138,0.81,5.57,11111222 
SCCF RECON,ioos:station:SCCF:18:1,2019-10-01T19:00:00Z,26.6955,-81.8138,0.778,5.66,11111222 
SCCF RECON,ioos:station:SCCF:18:1,2019-10-01T20:00:00Z,26.6955,-81.8138,0.79,5.82,11111222 
SCCF RECON,ioos:station:SCCF:18:1,2019-10-01T21:00:00Z,26.6955,-81.8138,0.82,5.96,11111222 
SCCF RECON,ioos:station:SCCF:18:1,2019-10-01T23:00:00Z,26.6955,-81.8138,0.9,6.03,11111222 
SCCF RECON,ioos:station:SCCF:18:1,2019-10-02T04:00:00Z,26.6955,-81.8138,0.99,5.72,11111222 
SCCF RECON,ioos:station:SCCF:18:1,2019-10-02T05:00:00Z,26.6955,-81.8138,0.959,5.72,11111222 
SCCF RECON,ioos:station:SCCF:18:1,2019-10-02T06:00:00Z,26.6955,-81.8138,0.91,5.7,11111222 
SCCF RECON,ioos:station:SCCF:18:1,2019-10-02T07:00:00Z,26.6955,-81.8138,0.851,5.63,11111222 
SCCF RECON,ioos:station:SCCF:18:1,2019-10-02T08:00:00Z,26.6955,-81.8138,0.87,5.49,11111222 
SCCF RECON,ioos:station:SCCF:18:1,2019-10-02T09:00:00Z,26.6955,-81.8138,0.93,5.64,11111222 
SCCF RECON,ioos:station:SCCF:18:1,2019-10-02T10:00:00Z,26.6955,-81.8138,16.81,5.73,11111222 
SCCF RECON,ioos:station:SCCF:18:1,2019-10-02T11:00:00Z,26.6955,-81.8138,24.752,5.76,11111222 
SCCF RECON,ioos:station:SCCF:18:1,2019-10-02T12:00:00Z,26.6955,-81.8138,28.038,5.69,11111222 
SCCF RECON,ioos:station:SCCF:18:1,2019-10-02T13:00:00Z,26.6955,-81.8138,28.576,5.62,11111222 
SCCF RECON,ioos:station:SCCF:18:1,2019-10-02T14:00:00Z,26.6955,-81.8138,1.137,5.49,11111222 
SCCF RECON,ioos:station:SCCF:18:1,2019-10-02T15:00:00Z,26.6955,-81.8138,1.1,5.61,11111222 
SCCF RECON,ioos:station:SCCF:18:1,2019-10-02T17:00:00Z,26.6955,-81.8138,0.95,5.75,11111222 
SCCF RECON,ioos:station:SCCF:18:1,2019-10-02T18:00:00Z,26.6955,-81.8138,0.911,5.83,11111222 
SCCF RECON,ioos:station:SCCF:18:1,2019-10-02T19:00:00Z,26.6955,-81.8138,0.86,5.91,11111222 
SCCF RECON,ioos:station:SCCF:18:1,2019-10-02T20:00:00Z,26.6955,-81.8138,0.794,5.84,11111222 
SCCF RECON,ioos:station:SCCF:18:1,2019-10-02T21:00:00Z,26.6955,-81.8138,0.8,5.95,11111222 
SCCF RECON,ioos:station:SCCF:18:1,2019-10-02T22:00:00Z,26.6955,-81.8138,0.82,6.07,11111222 
SCCF RECON,ioos:station:SCCF:18:1,2019-10-03T04:00:00Z,26.6955,-81.8138,0.98,5.94,11111222 
SCCF RECON,ioos:station:SCCF:18:1,2019-10-03T05:00:00Z,26.6955,-81.8138,0.99,5.91,11111222 
SCCF RECON,ioos:station:SCCF:18:1,2019-10-03T06:00:00Z,26.6955,-81.8138,0.98,5.71,11111222 
SCCF RECON,ioos:station:SCCF:18:1,2019-10-03T07:00:00Z,26.6955,-81.8138,0.962,5.81,11111222 
SCCF RECON,ioos:station:SCCF:18:1,2019-10-03T08:00:00Z,26.6955,-81.8138,0.96,5.69,11111222 
SCCF RECON,ioos:station:SCCF:18:1,2019-10-03T09:00:00Z,26.6955,-81.8138,26.136,5.72,11111222 
SCCF RECON,ioos:station:SCCF:18:1,2019-10-03T10:00:00Z,26.6955,-81.8138,29.242,5.82,11111222 
SCCF RECON,ioos:station:SCCF:18:1,2019-10-03T11:00:00Z,26.6955,-81.8138,1.08,5.9,11111222 
SCCF RECON,ioos:station:SCCF:18:1,2019-10-03T12:00:00Z,26.6955,-81.8138,28.12,5.78,11111222 
SCCF RECON,ioos:station:SCCF:18:1,2019-10-03T13:00:00Z,26.6955,-81.8138,31.745,5.82,11111222 
SCCF RECON,ioos:station:SCCF:18:1,2019-10-03T14:00:00Z,26.6955,-81.8138,32.283,5.55,11111222 
SCCF RECON,ioos:station:SCCF:18:1,2019-10-03T15:00:00Z,26.6955,-81.8138,1.24,5.53,11111222 
SCCF RECON,ioos:station:SCCF:18:1,2019-10-03T16:00:00Z,26.6955,-81.8138,1.2,5.55,11111222 
SCCF RECON,ioos:station:SCCF:18:1,2019-10-03T17:00:00Z,26.6955,-81.8138,1.13,5.62,11111222 
SCCF RECON,ioos:station:SCCF:18:1,2019-10-03T19:00:00Z,26.6955,-81.8138,1.02,5.74,11111222 
SCCF RECON,ioos:station:SCCF:18:1,2019-10-03T20:00:00Z,26.6955,-81.8138,0.95,5.78,11111222 
SCCF RECON,ioos:station:SCCF:18:1,2019-10-03T21:00:00Z,26.6955,-81.8138,0.92,5.55,11111222 
SCCF RECON,ioos:station:SCCF:18:1,2019-10-03T22:00:00Z,26.6955,-81.8138,0.91,5.41,11111222 
SCCF RECON,ioos:station:SCCF:18:1,2019-10-03T23:00:00Z,26.6955,-81.8138,0.95,5.57,11111222 
SCCF RECON,ioos:station:SCCF:18:1,2019-10-04T04:00:00Z,26.6955,-81.8138,1.102,5.73,11111222 
SCCF RECON,ioos:station:SCCF:18:1,2019-10-04T05:00:00Z,26.6955,-81.8138,1.13,5.65,11111222 
SCCF RECON,ioos:station:SCCF:18:1,2019-10-04T06:00:00Z,26.6955,-81.8138,1.13,5.6,11111222 
SCCF RECON,ioos:station:SCCF:18:1,2019-10-04T07:00:00Z,26.6955,-81.8138,1.098,5.48,11111222 
SCCF RECON,ioos:station:SCCF:18:1,2019-10-04T08:00:00Z,26.6955,-81.8138,1.08,5.42,11111222 
SCCF RECON,ioos:station:SCCF:18:1,2019-10-04T09:00:00Z,26.6955,-81.8138,1.052,5.16,11111222 
SCCF RECON,ioos:station:SCCF:18:1,2019-10-04T10:00:00Z,26.6955,-81.8138,28.935,5.35,11111222 
SCCF RECON,ioos:station:SCCF:18:1,2019-10-04T11:00:00Z,26.6955,-81.8138,32.463,5.54,11111222 
SCCF RECON,ioos:station:SCCF:18:1,2019-10-04T12:00:00Z,26.6955,-81.8138,32.564,5.49,11111222 
SCCF RECON,ioos:station:SCCF:18:1,2019-10-04T13:00:00Z,26.6955,-81.8138,33.504,5.35,11111222 
SCCF RECON,ioos:station:SCCF:18:1,2019-10-04T14:00:00Z,26.6955,-81.8138,34.613,5.47,11111222 
SCCF RECON,ioos:station:SCCF:18:1,2019-10-04T15:00:00Z,26.6955,-81.8138,1.31,5.37,11111222 
SCCF RECON,ioos:station:SCCF:18:1,2019-10-04T16:00:00Z,26.6955,-81.8138,1.25,5.28,11111222 
SCCF RECON,ioos:station:SCCF:18:1,2019-10-04T17:00:00Z,26.6955,-81.8138,1.201,5.28,11111222 
SCCF RECON,ioos:station:SCCF:18:1,2019-10-04T18:00:00Z,26.6955,-81.8138,1.13,5.38,11111222 
SCCF RECON,ioos:station:SCCF:18:1,2019-10-04T19:00:00Z,26.6955,-81.8138,1.11,5.37,11111222 
SCCF RECON,ioos:station:SCCF:18:1,2019-10-04T20:00:00Z,26.6955,-81.8138,1.02,5.34,11111222 
SCCF RECON,ioos:station:SCCF:18:1,2019-10-04T21:00:00Z,26.6955,-81.8138,0.97,5.47,11111222 
SCCF RECON,ioos:station:SCCF:18:1,2019-10-04T22:00:00Z,26.6955,-81.8138,0.94,5.67,11111222 
SCCF RECON,ioos:station:SCCF:18:1,2019-10-04T23:00:00Z,26.6955,-81.8138,0.917,5.55,11111222 
SCCF RECON,ioos:station:SCCF:18:1,2019-10-05T04:00:00Z,26.6955,-81.8138,1.09,5.53,11111222 
SCCF RECON,ioos:station:SCCF:18:1,2019-10-05T06:00:00Z,26.6955,-81.8138,1.14,5.45,11111222 
SCCF RECON,ioos:station:SCCF:18:1,2019-10-05T07:00:00Z,26.6955,-81.8138,1.12,5.34,11111222 
SCCF RECON,ioos:station:SCCF:18:1,2019-10-05T08:00:00Z,26.6955,-81.8138,1.11,5.29,11111222 
SCCF RECON,ioos:station:SCCF:18:1,2019-10-05T09:00:00Z,26.6955,-81.8138,1.107,5.17,11111222 
SCCF RECON,ioos:station:SCCF:18:1,2019-10-05T10:00:00Z,26.6955,-81.8138,1.119,5.1,11111222 
SCCF RECON,ioos:station:SCCF:18:1,2019-10-05T11:00:00Z,26.6955,-81.8138,1.131,5.07,11111222 
SCCF RECON,ioos:station:SCCF:18:1,2019-10-05T12:00:00Z,26.6955,-81.8138,1.141,5.13,11111222 
SCCF RECON,ioos:station:SCCF:18:1,2019-10-05T13:00:00Z,26.6955,-81.8138,1.163,4.95,11111222 
SCCF RECON,ioos:station:SCCF:18:1,2019-10-05T15:00:00Z,26.6955,-81.8138,1.253,5.21,11111222 
SCCF RECON,ioos:station:SCCF:18:1,2019-10-05T16:00:00Z,26.6955,-81.8138,1.28,5.23,11111222 
SCCF RECON,ioos:station:SCCF:18:1,2019-10-05T17:00:00Z,26.6955,-81.8138,1.21,5.44,11111222 
SCCF RECON,ioos:station:SCCF:18:1,2019-10-05T18:00:00Z,26.6955,-81.8138,1.14,5.81,11111222 
SCCF RECON,ioos:station:SCCF:18:1,2019-10-05T19:00:00Z,26.6955,-81.8138,1.103,5.86,11111222 
SCCF RECON,ioos:station:SCCF:18:1,2019-10-05T20:00:00Z,26.6955,-81.8138,1.03,5.82,11111222 
SCCF RECON,ioos:station:SCCF:18:1,2019-10-05T21:00:00Z,26.6955,-81.8138,0.94,5.86,11111222 
SCCF RECON,ioos:station:SCCF:18:1,2019-10-05T22:00:00Z,26.6955,-81.8138,0.87,5.73,11111222 
SCCF RECON,ioos:station:SCCF:18:1,2019-10-05T23:00:00Z,26.6955,-81.8138,0.86,5.71,11111222 
SCCF RECON,ioos:station:SCCF:18:1,2019-10-06T04:00:00Z,26.6955,-81.8138,0.99,4.85,11111222 
SCCF RECON,ioos:station:SCCF:18:1,2019-10-06T05:00:00Z,26.6955,-81.8138,1.03,5.25,11111222 
SCCF RECON,ioos:station:SCCF:18:1,2019-10-06T06:00:00Z,26.6955,-81.8138,1.062,5.46,11111222 
SCCF RECON,ioos:station:SCCF:18:1,2019-10-06T07:00:00Z,26.6955,-81.8138,1.08,5.38,11111222 
SCCF RECON,ioos:station:SCCF:18:1,2019-10-06T08:00:00Z,26.6955,-81.8138,1.107,5.33,11111222 
SCCF RECON,ioos:station:SCCF:18:1,2019-10-06T09:00:00Z,26.6955,-81.8138,1.113,5.18,11111222 
SCCF RECON,ioos:station:SCCF:18:1,2019-10-06T10:00:00Z,26.6955,-81.8138,1.08,5.12,11111222 
SCCF RECON,ioos:station:SCCF:18:1,2019-10-06T11:00:00Z,26.6955,-81.8138,1.04,4.71,11111222 
SCCF RECON,ioos:station:SCCF:18:1,2019-10-06T12:00:00Z,26.6955,-81.8138,1.028,4.6,11111222 
SCCF RECON,ioos:station:SCCF:18:1,2019-10-06T13:00:00Z,26.6955,-81.8138,1.07,4.79,11111222 
SCCF RECON,ioos:station:SCCF:18:1,2019-10-06T14:00:00Z,26.6955,-81.8138,1.123,5.27,11111222 
SCCF RECON,ioos:station:SCCF:18:1,2019-10-06T15:00:00Z,26.6955,-81.8138,1.19,5.44,11111222 
SCCF RECON,ioos:station:SCCF:18:1,2019-10-06T16:00:00Z,26.6955,-81.8138,1.187,5.42,11111222 
SCCF RECON,ioos:station:SCCF:18:1,2019-10-06T17:00:00Z,26.6955,-81.8138,1.19,5.82,11111222 
SCCF RECON,ioos:station:SCCF:18:1,2019-10-06T18:00:00Z,26.6955,-81.8138,1.13,5.99,11111222 
SCCF RECON,ioos:station:SCCF:18:1,2019-10-06T19:00:00Z,26.6955,-81.8138,1.07,6.42,11111222 
SCCF RECON,ioos:station:SCCF:18:1,2019-10-06T20:00:00Z,26.6955,-81.8138,1.04,6.18,11111222 
SCCF RECON,ioos:station:SCCF:18:1,2019-10-06T21:00:00Z,26.6955,-81.8138,0.98,6.97,11111222 
SCCF RECON,ioos:station:SCCF:18:1,2019-10-06T23:00:00Z,26.6955,-81.8138,0.86,6.32,11111222 
SCCF RECON,ioos:station:SCCF:18:1,2019-10-07T05:00:00Z,26.6955,-81.8138,0.96,6.55,11111222 
SCCF RECON,ioos:station:SCCF:18:1,2019-10-07T06:00:00Z,26.6955,-81.8138,1.0,6.66,11111222 
SCCF RECON,ioos:station:SCCF:18:1,2019-10-07T07:00:00Z,26.6955,-81.8138,1.03,6.75,11111222 
SCCF RECON,ioos:station:SCCF:18:1,2019-10-07T08:00:00Z,26.6955,-81.8138,1.05,6.96,11111222 
SCCF RECON,ioos:station:SCCF:18:1,2019-10-07T09:00:00Z,26.6955,-81.8138,1.099,6.69,11111222 
SCCF RECON,ioos:station:SCCF:18:1,2019-10-07T10:00:00Z,26.6955,-81.8138,1.06,6.65,11111222 
SCCF RECON,ioos:station:SCCF:18:1,2019-10-07T11:00:00Z,26.6955,-81.8138,1.05,6.71,11111222 
SCCF RECON,ioos:station:SCCF:18:1,2019-10-07T12:00:00Z,26.6955,-81.8138,1.03,7.04,11111222 
SCCF RECON,ioos:station:SCCF:18:1,2019-10-07T13:00:00Z,26.6955,-81.8138,1.02,7.27,11111222 
SCCF RECON,ioos:station:SCCF:18:1,2019-10-07T15:00:00Z,26.6955,-81.8138,1.13,5.33,11111222 
SCCF RECON,ioos:station:SCCF:18:1,2019-10-07T16:00:00Z,26.6955,-81.8138,1.17,6.37,11111222 
SCCF RECON,ioos:station:SCCF:18:1,2019-10-07T17:00:00Z,26.6955,-81.8138,1.22,3.59,11111222 
SCCF RECON,ioos:station:SCCF:18:1,2019-10-07T18:00:00Z,26.6955,-81.8138,1.24,2.98,11111222 
SCCF RECON,ioos:station:SCCF:18:1,2019-10-07T19:00:00Z,26.6955,-81.8138,1.19,2.39,11111222 
SCCF RECON,ioos:station:SCCF:18:1,2019-10-07T20:00:00Z,26.6955,-81.8138,1.14,2.08,11111222 
SCCF RECON,ioos:station:SCCF:18:1,2019-10-07T21:00:00Z,26.6955,-81.8138,1.072,1.72,11111222 
SCCF RECON,ioos:station:SCCF:18:1,2019-10-07T22:00:00Z,26.6955,-81.8138,1.054,3.9,11111222 
SCCF RECON,ioos:station:SCCF:18:1,2019-10-07T23:00:00Z,26.6955,-81.8138,1.03,3.34,11111222 
SCCF RECON,ioos:station:SCCF:18:1,2019-10-08T04:00:00Z,26.6955,-81.8138,1.011,6.96,11111222 
SCCF RECON,ioos:station:SCCF:18:1,2019-10-08T05:00:00Z,26.6955,-81.8138,1.059,6.81,11111222 
SCCF RECON,ioos:station:SCCF:18:1,2019-10-08T06:00:00Z,26.6955,-81.8138,1.09,7.11,11111222 
SCCF RECON,ioos:station:SCCF:18:1,2019-10-08T07:00:00Z,26.6955,-81.8138,1.12,7.18,11111222 
SCCF RECON,ioos:station:SCCF:18:1,2019-10-08T08:00:00Z,26.6955,-81.8138,1.16,7.17,11111222 
SCCF RECON,ioos:station:SCCF:18:1,2019-10-08T09:00:00Z,26.6955,-81.8138,1.2,7.01,11111222 
SCCF RECON,ioos:station:SCCF:18:1,2019-10-08T11:00:00Z,26.6955,-81.8138,1.18,7.05,11111222 
SCCF RECON,ioos:station:SCCF:18:1,2019-10-08T12:00:00Z,26.6955,-81.8138,1.13,7.0,11111222 
SCCF RECON,ioos:station:SCCF:18:1,2019-10-08T13:00:00Z,26.6955,-81.8138,1.13,7.25,11111222 
SCCF RECON,ioos:station:SCCF:18:1,2019-10-08T14:00:00Z,26.6955,-81.8138,1.13,7.16,11111222 
SCCF RECON,ioos:station:SCCF:18:1,2019-10-08T15:00:00Z,26.6955,-81.8138,1.172,7.24,11111222 
SCCF RECON,ioos:station:SCCF:18:1,2019-10-08T16:00:00Z,26.6955,-81.8138,1.2,7.51,11111222 
SCCF RECON,ioos:station:SCCF:18:1,2019-10-08T17:00:00Z,26.6955,-81.8138,1.25,7.57,11111222 
SCCF RECON,ioos:station:SCCF:18:1,2019-10-08T18:00:00Z,26.6955,-81.8138,1.29,7.34,11111222 
SCCF RECON,ioos:station:SCCF:18:1,2019-10-08T19:00:00Z,26.6955,-81.8138,1.3,7.27,11111222 
SCCF RECON,ioos:station:SCCF:18:1,2019-10-08T20:00:00Z,26.6955,-81.8138,1.29,7.05,11111222 
SCCF RECON,ioos:station:SCCF:18:1,2019-10-08T21:00:00Z,26.6955,-81.8138,1.22,7.04,11111222 
SCCF RECON,ioos:station:SCCF:18:1,2019-10-08T22:00:00Z,26.6955,-81.8138,1.2,6.97,11111222 
SCCF RECON,ioos:station:SCCF:18:1,2019-10-08T23:00:00Z,26.6955,-81.8138,1.176,7.31,11111222 
SCCF RECON,ioos:station:SCCF:18:1,2019-10-09T04:00:00Z,26.6955,-81.8138,1.073,7.1,11111222 
SCCF RECON,ioos:station:SCCF:18:1,2019-10-09T06:00:00Z,26.6955,-81.8138,1.14,7.1,11111222 
SCCF RECON,ioos:station:SCCF:18:1,2019-10-09T07:00:00Z,26.6955,-81.8138,1.179,7.11,11111222 
SCCF RECON,ioos:station:SCCF:18:1,2019-10-09T08:00:00Z,26.6955,-81.8138,1.2,6.54,11111222 
SCCF RECON,ioos:station:SCCF:18:1,2019-10-09T09:00:00Z,26.6955,-81.8138,1.2,6.78,11111222 
SCCF RECON,ioos:station:SCCF:18:1,2019-10-09T10:00:00Z,26.6955,-81.8138,1.18,6.33,11111222 
SCCF RECON,ioos:station:SCCF:18:1,2019-10-09T11:00:00Z,26.6955,-81.8138,1.171,6.3,11111222 
SCCF RECON,ioos:station:SCCF:18:1,2019-10-09T12:00:00Z,26.6955,-81.8138,1.12,5.98,11111222 
SCCF RECON,ioos:station:SCCF:18:1,2019-10-09T13:00:00Z,26.6955,-81.8138,1.092,5.92,11111222 
SCCF RECON,ioos:station:SCCF:18:1,2019-10-09T14:00:00Z,26.6955,-81.8138,1.08,6.4,11111222 
SCCF RECON,ioos:station:SCCF:18:1,2019-10-09T15:00:00Z,26.6955,-81.8138,34.504,6.44,11111222 
SCCF RECON,ioos:station:SCCF:18:1,2019-10-09T16:00:00Z,26.6955,-81.8138,35.577,6.51,11111222 
SCCF RECON,ioos:station:SCCF:18:1,2019-10-09T17:00:00Z,26.6955,-81.8138,35.465,7.24,11111222 
SCCF RECON,ioos:station:SCCF:18:1,2019-10-09T18:00:00Z,26.6955,-81.8138,35.303,7.4,11111222 
SCCF RECON,ioos:station:SCCF:18:1,2019-10-09T19:00:00Z,26.6955,-81.8138,34.736,7.22,11111222 
SCCF RECON,ioos:station:SCCF:18:1,2019-10-09T20:00:00Z,26.6955,-81.8138,34.428,7.48,11111222 
SCCF RECON,ioos:station:SCCF:18:1,2019-10-09T21:00:00Z,26.6955,-81.8138,1.22,6.92,11111222 
SCCF RECON,ioos:station:SCCF:18:1,2019-10-09T22:00:00Z,26.6955,-81.8138,1.18,6.37,11111222 
SCCF RECON,ioos:station:SCCF:18:1,2019-10-09T23:00:00Z,26.6955,-81.8138,1.093,5.53,11111222 
SCCF RECON,ioos:station:SCCF:18:1,2019-10-10T04:00:00Z,26.6955,-81.8138,0.95,6.53,11111222 
SCCF RECON,ioos:station:SCCF:18:1,2019-10-10T05:00:00Z,26.6955,-81.8138,0.99,6.31,11111222 
SCCF RECON,ioos:station:SCCF:18:1,2019-10-10T06:00:00Z,26.6955,-81.8138,1.04,5.1,11111222 
SCCF RECON,ioos:station:SCCF:18:1,2019-10-10T07:00:00Z,26.6955,-81.8138,1.06,6.36,11111222 
SCCF RECON,ioos:station:SCCF:18:1,2019-10-10T08:00:00Z,26.6955,-81.8138,1.1,4.99,11111222 
SCCF RECON,ioos:station:SCCF:18:1,2019-10-10T09:00:00Z,26.6955,-81.8138,1.13,5.24,11111222 
SCCF RECON,ioos:station:SCCF:18:1,2019-10-10T10:00:00Z,26.6955,-81.8138,1.07,4.58,11111222 
SCCF RECON,ioos:station:SCCF:18:1,2019-10-10T11:00:00Z,26.6955,-81.8138,1.02,4.83,11111222 
SCCF RECON,ioos:station:SCCF:18:1,2019-10-10T12:00:00Z,26.6955,-81.8138,0.97,5.6,11111222 
SCCF RECON,ioos:station:SCCF:18:1,2019-10-10T13:00:00Z,26.6955,-81.8138,0.93,4.74,11111222 
SCCF RECON,ioos:station:SCCF:18:1,2019-10-10T14:00:00Z,26.6955,-81.8138,0.939,5.61,11111222 
SCCF RECON,ioos:station:SCCF:18:1,2019-10-10T15:00:00Z,26.6955,-81.8138,0.952,5.45,11111222 
SCCF RECON,ioos:station:SCCF:18:1,2019-10-10T16:00:00Z,26.6955,-81.8138,1.0,5.3,11111222 
SCCF RECON,ioos:station:SCCF:18:1,2019-10-10T18:00:00Z,26.6955,-81.8138,1.09,5.35,11111222 
SCCF RECON,ioos:station:SCCF:18:1,2019-10-10T19:00:00Z,26.6955,-81.8138,1.158,4.94,11111222 
SCCF RECON,ioos:station:SCCF:18:1,2019-10-10T20:00:00Z,26.6955,-81.8138,1.169,4.83,11111222 
SCCF RECON,ioos:station:SCCF:18:1,2019-10-10T21:00:00Z,26.6955,-81.8138,1.1,4.66,11111222 
SCCF RECON,ioos:station:SCCF:18:1,2019-10-10T22:00:00Z,26.6955,-81.8138,0.98,4.81,11111222 
SCCF RECON,ioos:station:SCCF:18:1,2019-10-10T23:00:00Z,26.6955,-81.8138,0.932,4.97,11111222 
SCCF RECON,ioos:station:SCCF:18:1,2019-10-11T04:00:00Z,26.6955,-81.8138,0.85,4.14,11111222 
SCCF RECON,ioos:station:SCCF:18:1,2019-10-11T05:00:00Z,26.6955,-81.8138,0.86,4.23,11111222 
SCCF RECON,ioos:station:SCCF:18:1,2019-10-11T06:00:00Z,26.6955,-81.8138,0.906,4.13,11111222 
SCCF RECON,ioos:station:SCCF:18:1,2019-10-11T07:00:00Z,26.6955,-81.8138,0.95,4.19,11111222 
SCCF RECON,ioos:station:SCCF:18:1,2019-10-11T08:00:00Z,26.6955,-81.8138,0.99,3.97,11111222 
SCCF RECON,ioos:station:SCCF:18:1,2019-10-11T09:00:00Z,26.6955,-81.8138,1.047,3.38,11111222 
SCCF RECON,ioos:station:SCCF:18:1,2019-10-11T11:00:00Z,26.6955,-81.8138,1.0,3.45,11111222 
SCCF RECON,ioos:station:SCCF:18:1,2019-10-11T12:00:00Z,26.6955,-81.8138,0.95,2.81,11111222 
SCCF RECON,ioos:station:SCCF:18:1,2019-10-11T13:00:00Z,26.6955,-81.8138,0.92,3.08,11111222 
SCCF RECON,ioos:station:SCCF:18:1,2019-10-11T14:00:00Z,26.6955,-81.8138,0.878,3.51,11111222 
SCCF RECON,ioos:station:SCCF:18:1,2019-10-11T15:00:00Z,26.6955,-81.8138,0.87,3.78,11111222 
SCCF RECON,ioos:station:SCCF:18:1,2019-10-11T16:00:00Z,26.6955,-81.8138,0.88,2.84,11111222 
SCCF RECON,ioos:station:SCCF:18:1,2019-10-11T17:00:00Z,26.6955,-81.8138,0.931,3.0,11111222 
SCCF RECON,ioos:station:SCCF:18:1,2019-10-11T18:00:00Z,26.6955,-81.8138,0.99,3.4,11111222 
SCCF RECON,ioos:station:SCCF:18:1,2019-10-11T19:00:00Z,26.6955,-81.8138,1.04,2.97,11111222 
SCCF RECON,ioos:station:SCCF:18:1,2019-10-11T20:00:00Z,26.6955,-81.8138,1.1,3.66,11111222 
SCCF RECON,ioos:station:SCCF:18:1,2019-10-11T21:00:00Z,26.6955,-81.8138,1.144,3.42,11111222 
SCCF RECON,ioos:station:SCCF:18:1,2019-10-11T22:00:00Z,26.6955,-81.8138,1.081,3.37,11111222 
SCCF RECON,ioos:station:SCCF:18:1,2019-10-11T23:00:00Z,26.6955,-81.8138,0.99,3.13,11111222 
SCCF RECON,ioos:station:SCCF:18:1,2019-10-12T04:00:00Z,26.6955,-81.8138,0.89,2.21,11111222 
SCCF RECON,ioos:station:SCCF:18:1,2019-10-12T05:00:00Z,26.6955,-81.8138,0.92,3.03,11111222 
SCCF RECON,ioos:station:SCCF:18:1,2019-10-12T06:00:00Z,26.6955,-81.8138,0.968,2.6,11111222 
SCCF RECON,ioos:station:SCCF:18:1,2019-10-12T07:00:00Z,26.6955,-81.8138,1.0,3.2,11111222 
SCCF RECON,ioos:station:SCCF:18:1,2019-10-12T08:00:00Z,26.6955,-81.8138,1.03,3.53,11111222 
SCCF RECON,ioos:station:SCCF:18:1,2019-10-12T09:00:00Z,26.6955,-81.8138,1.087,5.03,11111222 
SCCF RECON,ioos:station:SCCF:18:1,2019-10-12T10:00:00Z,26.6955,-81.8138,1.09,4.94,11111222 
SCCF RECON,ioos:station:SCCF:18:1,2019-10-12T11:00:00Z,26.6955,-81.8138,1.04,5.66,11111222 
SCCF RECON,ioos:station:SCCF:18:1,2019-10-12T12:00:00Z,26.6955,-81.8138,0.98,6.97,11111222 
SCCF RECON,ioos:station:SCCF:18:1,2019-10-12T13:00:00Z,26.6955,-81.8138,0.93,7.35,11111222 
SCCF RECON,ioos:station:SCCF:18:1,2019-10-12T14:00:00Z,26.6955,-81.8138,0.89,7.05,11111222 
SCCF RECON,ioos:station:SCCF:18:1,2019-10-12T15:00:00Z,26.6955,-81.8138,0.856,5.83,11111222 
SCCF RECON,ioos:station:SCCF:18:1,2019-10-12T16:00:00Z,26.6955,-81.8138,0.87,5.04,11111222 
SCCF RECON,ioos:station:SCCF:18:1,2019-10-12T17:00:00Z,26.6955,-81.8138,0.92,4.64,11111222 
SCCF RECON,ioos:station:SCCF:18:1,2019-10-12T18:00:00Z,26.6955,-81.8138,0.97,4.21,11111222 
SCCF RECON,ioos:station:SCCF:18:1,2019-10-12T19:00:00Z,26.6955,-81.8138,1.02,3.85,11111222 
SCCF RECON,ioos:station:SCCF:18:1,2019-10-12T20:00:00Z,26.6955,-81.8138,1.061,3.44,11111222 
SCCF RECON,ioos:station:SCCF:18:1,2019-10-12T21:00:00Z,26.6955,-81.8138,1.117,3.26,11111222 
SCCF RECON,ioos:station:SCCF:18:1,2019-10-12T22:00:00Z,26.6955,-81.8138,1.13,3.19,11111222 
SCCF RECON,ioos:station:SCCF:18:1,2019-10-12T23:00:00Z,26.6955,-81.8138,1.09,3.16,11111222 
SCCF RECON,ioos:station:SCCF:18:1,2019-10-13T04:00:00Z,26.6955,-81.8138,0.89,2.88,11111222 
SCCF RECON,ioos:station:SCCF:18:1,2019-10-13T05:00:00Z,26.6955,-81.8138,0.89,2.78,11111222 
SCCF RECON,ioos:station:SCCF:18:1,2019-10-13T06:00:00Z,26.6955,-81.8138,32.421,2.76,11111222 
SCCF RECON,ioos:station:SCCF:18:1,2019-10-13T07:00:00Z,26.6955,-81.8138,33.114,2.87,11111222 
SCCF RECON,ioos:station:SCCF:18:1,2019-10-13T08:00:00Z,26.6955,-81.8138,32.884,2.74,11111222 
SCCF RECON,ioos:station:SCCF:18:1,2019-10-13T09:00:00Z,26.6955,-81.8138,32.506,2.93,11111222 
SCCF RECON,ioos:station:SCCF:18:1,2019-10-13T10:00:00Z,26.6955,-81.8138,32.05,2.96,11111222 
SCCF RECON,ioos:station:SCCF:18:1,2019-10-13T11:00:00Z,26.6955,-81.8138,31.953,2.92,11111222 
SCCF RECON,ioos:station:SCCF:18:1,2019-10-13T12:00:00Z,26.6955,-81.8138,31.829,2.67,11111222 
SCCF RECON,ioos:station:SCCF:18:1,2019-10-13T13:00:00Z,26.6955,-81.8138,31.206,2.8,11111222 
SCCF RECON,ioos:station:SCCF:18:1,2019-10-13T14:00:00Z,26.6955,-81.8138,31.546,2.85,11111222 
SCCF RECON,ioos:station:SCCF:18:1,2019-10-13T15:00:00Z,26.6955,-81.8138,32.123,2.71,11111222 
SCCF RECON,ioos:station:SCCF:18:1,2019-10-13T16:00:00Z,26.6955,-81.8138,31.416,3.02,11111222 
SCCF RECON,ioos:station:SCCF:18:1,2019-10-13T17:00:00Z,26.6955,-81.8138,31.345,2.66,11111222 
SCCF RECON,ioos:station:SCCF:18:1,2019-10-13T18:00:00Z,26.6955,-81.8138,32.068,2.69,11111222 
SCCF RECON,ioos:station:SCCF:18:1,2019-10-13T19:00:00Z,26.6955,-81.8138,32.772,0.21,11111222 
SCCF RECON,ioos:station:SCCF:18:1,2019-10-13T20:00:00Z,26.6955,-81.8138,32.943,0.28,11111222 
SCCF RECON,ioos:station:SCCF:18:1,2019-10-13T21:00:00Z,26.6955,-81.8138,32.922,-1.81,11144222 
SCCF RECON,ioos:station:SCCF:18:1,2019-10-13T22:00:00Z,26.6955,-81.8138,32.316,-2.44,11144222 
SCCF RECON,ioos:station:SCCF:18:1,2019-10-13T23:00:00Z,26.6955,-81.8138,32.492,-2.44,11144222 
SCCF RECON,ioos:station:SCCF:18:1,2019-10-14T04:00:00Z,26.6955,-81.8138,33.419,-2.47,11144222 
SCCF RECON,ioos:station:SCCF:18:1,2019-10-14T05:00:00Z,26.6955,-81.8138,33.898,-2.42,11144222 
SCCF RECON,ioos:station:SCCF:18:1,2019-10-14T06:00:00Z,26.6955,-81.8138,1.076,-2.41,11144222 
SCCF RECON,ioos:station:SCCF:18:1,2019-10-14T07:00:00Z,26.6955,-81.8138,1.08,-2.4,11144222 
SCCF RECON,ioos:station:SCCF:18:1,2019-10-14T08:00:00Z,26.6955,-81.8138,32.721,-2.42,11144222 
SCCF RECON,ioos:station:SCCF:18:1,2019-10-14T09:00:00Z,26.6955,-81.8138,32.339,-2.43,11144222 
SCCF RECON,ioos:station:SCCF:18:1,2019-10-14T10:00:00Z,26.6955,-81.8138,31.925,-2.43,11144222 
SCCF RECON,ioos:station:SCCF:18:1,2019-10-14T11:00:00Z,26.6955,-81.8138,31.576,-2.46,11144222 
SCCF RECON,ioos:station:SCCF:18:1,2019-10-14T12:00:00Z,26.6955,-81.8138,31.644,-2.45,11144222 
SCCF RECON,ioos:station:SCCF:18:1,2019-10-14T13:00:00Z,26.6955,-81.8138,31.518,-2.44,11144222 
SCCF RECON,ioos:station:SCCF:18:1,2019-10-14T14:00:00Z,26.6955,-81.8138,31.655,-2.44,11144222 
SCCF RECON,ioos:station:SCCF:18:1,2019-10-14T15:00:00Z,26.6955,-81.8138,31.857,-2.45,11144222 